Fitbit Current Ratio 2013-2020 | FIT

Fitbit current ratio from 2013 to 2020. Current ratio can be defined as a liquidity ratio that measures a company's ability to pay short-term obligations.
Fitbit Current Ratio Historical Data
Date Current Assets Current Liabilities Current Ratio
2020-09-30 $0.95B $0.68B 1.40
2020-06-30 $0.79B $0.49B 1.60
2020-03-31 $0.91B $0.52B 1.74
2019-12-31 $1.12B $0.77B 1.46
2019-09-30 $1.13B $0.68B 1.65
2019-06-30 $1.02B $0.54B 1.87
2019-03-31 $1.10B $0.59B 1.87
2018-12-31 $1.31B $0.72B 1.82
2018-09-30 $1.20B $0.65B 1.84
2018-06-30 $1.11B $0.58B 1.89
2018-03-31 $1.16B $0.55B 2.11
2017-12-31 $1.38B $0.70B 1.97
2017-09-30 $1.23B $0.57B 2.18
2017-06-30 $1.13B $0.48B 2.37
2017-03-31 $1.18B $0.52B 2.28
2016-12-31 $1.48B $0.76B 1.96
2016-09-30 $1.44B $0.52B 2.76
2016-06-30 $1.39B $0.51B 2.73
2016-03-31 $1.40B $0.53B 2.66
2015-12-31 $1.36B $0.51B 2.67
2015-09-30 $1.18B $0.46B 2.56
2015-06-30 $0.97B $0.31B 3.14
2015-03-31 $0.60B $0.42B 1.42
2014-12-31 $0.56B $0.46B 1.22
2014-09-30 $0.00B 0.00
2014-06-30 $0.00B 0.00
2014-03-31 $0.00B 0.00
2013-12-31 $0.22B $0.21B 1.07
2012-12-31 $0.22B $0.21B 1.07
Sector Industry Market Cap Revenue
Computer and Technology Electrical Measuring Instruments $0.000B $1.435B
Fitbit Inc. manufactures and markets wearable fitness-tracking devices. The Company's product consists of Fitbit Zip, Fitbit One, Fitbit Flex, Fitbit Charge, Fitbit Charge HR, Fitbit Surge and Aria. It also offers accessories which include bands and clips, charging cables and Fitbit apparel. Fitbit Inc. is headquartered in San Francisco, California.
Stock Name Country Market Cap PE Ratio
Keysight Technologies (KEYS) United States $32.686B 31.97
Advantest (ATEYY) Japan $20.253B 27.75
Camtek (CAMT) Israel $1.834B 43.22
GS Acquisition Holdings Corp II (GSAH) United States $0.942B 0.00
Aehr Test Systems (AEHR) United States $0.269B 0.00
Geospace Technologies (GEOS) United States $0.126B 0.00